San Juan, PR

5:08 AM AST on May 26, 2018 (GMT -0400)
Luis Munoz Marin International

Weather History for TJSJ - June, 2014

Change the Weather History Date:

Thursday, June 19, 2014

  Actual Average Record
Temperature  
Mean Temperature 85 °F 83 °F  
Max Temperature 91 °F 89 °F 94 °F (1981)
Min Temperature 79 °F 78 °F 66 °F (1909)
Degree Days  
Heating Degree Days 0 0  
Month to date heating degree days 0 0  
Since 1 June heating degree days 0 0  
Since 1 July heating degree days 0 0  
Cooling Degree Days 20 18  
Month to date cooling degree days 372 342  
Year to date cooling degree days 2778 2507  
Since 1 June cooling degree days 372 342  
Growing Degree Days 35 (Base 50)    
Moisture  
Dew Point 74 °F    
Average Humidity 71    
Maximum Humidity 85    
Minimum Humidity 56    
Precipitation  
Precipitation T in 0.14 in 1.79 in (2010)
Month to date precipitation 0.27 2.92  
Year to date precipitation 18.68 21.60  
Sea Level Pressure  
Sea Level Pressure 30.07 in    
Wind  
Wind Speed 10 mph (ENE)    
Max Wind Speed 22 mph    
Max Gust Speed 26 mph    
Visibility 10 miles    
Events      
T = Trace of Precipitation, MM = Missing Value Source: NWS Daily Summary

Daily Weather History Graph

Daily Weather History Graph

Search for Another Location

Airport or City:

Astronomy

Jun. 19, 2014 Rise Set
Actual Time 5:48 AM AST 7:02 PM AST
Civil Twilight 5:23 AM AST 7:26 PM AST
Nautical Twilight 4:55 AM AST 7:55 PM AST
Astronomical Twilight 4:25 AM AST 8:25 PM AST
Moon No Moon Rise 12:18 PM AST (6/19)
Length of Visible Light 14h 02m
Length of Day
13h 14m
Waning Gibbous, 51% of the Moon is Illuminated
Jun 19
Waning Gibbous
Jun 19
Last Quarter
Jun 27
New
Jul 5
First Quarter
Jul 12
Full

Hourly Weather History & Observations

Time (AST) Temp. Heat Index Dew Point Humidity Pressure Visibility Wind Dir Wind Speed Gust Speed Precip Events Conditions
12:56 AM 81.0 °F 86.2 °F 73.9 °F 79% 30.06 in 10.0 mi Calm Calm - N/A   Scattered Clouds
1:56 AM 80.1 °F 84.5 °F 73.9 °F 81% 30.05 in 10.0 mi Calm Calm - N/A   Partly Cloudy
2:56 AM 80.1 °F 84.2 °F 73.0 °F 79% 30.05 in 10.0 mi Calm Calm - 0.01 in   Scattered Clouds
3:56 AM 79.0 °F - 73.0 °F 82% 30.05 in 10.0 mi SE 3.5 mph - 0.01 in   Scattered Clouds
4:56 AM 79.0 °F - 73.0 °F 82% 30.06 in 10.0 mi Calm Calm - N/A   Partly Cloudy
5:56 AM 79.0 °F - 73.0 °F 82% 30.07 in 10.0 mi Calm Calm - 0.02 in   Scattered Clouds
6:56 AM 80.1 °F 84.2 °F 73.0 °F 79% 30.08 in 10.0 mi ESE 3.5 mph - N/A   Scattered Clouds
7:56 AM 82.9 °F 89.4 °F 73.9 °F 74% 30.08 in 10.0 mi East 10.4 mph - N/A   Scattered Clouds
8:56 AM 86.0 °F 92.2 °F 72.0 °F 63% 30.10 in 10.0 mi East 12.7 mph 18.4 mph N/A   Scattered Clouds
9:56 AM 87.1 °F 94.5 °F 73.0 °F 63% 30.09 in 10.0 mi East 15.0 mph 23.0 mph N/A   Scattered Clouds
10:56 AM 89.1 °F 98.0 °F 73.9 °F 61% 30.09 in 10.0 mi NE 16.1 mph - 0.02 in   Scattered Clouds
11:56 AM 89.1 °F 98.0 °F 73.9 °F 61% 30.09 in 10.0 mi ENE 16.1 mph 25.3 mph N/A   Scattered Clouds
12:56 PM 90.0 °F 99.0 °F 73.9 °F 59% 30.07 in 10.0 mi ENE 18.4 mph 25.3 mph 0.01 in   Scattered Clouds
1:56 PM 91.0 °F 99.3 °F 73.0 °F 55% 30.06 in 10.0 mi NE 19.6 mph - N/A   Scattered Clouds
2:56 PM 90.0 °F 97.9 °F 73.0 °F 57% 30.05 in 10.0 mi NE 18.4 mph - N/A   Scattered Clouds
3:56 PM 90.0 °F 97.9 °F 73.0 °F 57% 30.03 in 10.0 mi ENE 18.4 mph 24.2 mph N/A   Scattered Clouds
4:56 PM 87.1 °F 94.5 °F 73.0 °F 63% 30.02 in 10.0 mi NE 15.0 mph 24.2 mph N/A   Scattered Clouds
5:56 PM 86.0 °F 93.0 °F 73.0 °F 65% 30.04 in 10.0 mi ENE 17.3 mph - N/A   Scattered Clouds
6:56 PM 84.0 °F 90.2 °F 73.0 °F 69% 30.05 in 10.0 mi ENE 11.5 mph - N/A   Scattered Clouds
7:56 PM 82.9 °F 90.2 °F 75.0 °F 77% 30.07 in 10.0 mi East 12.7 mph - N/A   Scattered Clouds
8:56 PM 82.0 °F 88.6 °F 75.0 °F 79% 30.08 in 10.0 mi ENE 9.2 mph - 0.00 in   Scattered Clouds
9:56 PM 82.0 °F 87.9 °F 73.9 °F 76% 30.08 in 10.0 mi East 5.8 mph - N/A   Scattered Clouds
10:56 PM 81.0 °F 86.7 °F 75.0 °F 82% 30.09 in 10.0 mi East 6.9 mph - N/A   Scattered Clouds
11:56 PM 81.0 °F 86.7 °F 75.0 °F 82% 30.08 in 10.0 mi East 9.2 mph - N/A   Scattered Clouds